Flag for Ecuador Weather past 2 weeks in Quito, Ecuador

Now
54 °F

Partly cloudy.


Feels Like: 50 °F
Forecast: 48 / 68 °F
Wind: 10 mph from Northwest

Location: Latacunga Airport


UV Index: 3 (Moderate)

Visibility: N/A


Pressure: 30.39 "Hg

Humidity: 77%

Dew point: 46 °F

Location of QuitoLocation

Historic Weather in Quito

°F

Quito temperature yesterday

Maximum temperature yesterday: 63 °F (at 2:00 PM)
Minimum temperature yesterday: 50 °F (at 10:00 PM)
Average temperature yesterday: 55 °F

Past Weeks' High & Low Weather Summary

 TemperatureHumidityPressure
High72 °F (Apr 17, 2:00 PM)100% (Apr 2, 11:00 PM)30.51 "Hg (Apr 2, 11:00 PM)
Low34 °F (Apr 7, 4:00 AM)46% (Apr 5, 5:00 PM)30.24 "Hg (Apr 15, 5:00 PM)
Average56 °F84%30.39 "Hg
* Reported Apr 2 8:00 PM — Apr 17 8:00 PM, Quito, Weather by CustomWeather, © 2014

Note: Actual official high and low records may vary slightly from our data, if they occured in-between our weather recording intervals... More about our weather records

Advertising

Historic Weather Conditions — Data for Previous 24 hours

 ConditionsComfort  
Time TempWeatherWind HumidityBarometerVisibility
8:00 PM
Apr 17
54 °FPartly cloudy.10 mph77%30.39 "HgN/A
7:00 PM54 °FScattered showers. Overcast.9 mph88%30.39 "HgN/A
6:00 PM54 °FScattered showers. Partly sunny.3 mph94%30.36 "HgN/A
5:00 PM50 °FThunderstorms. Cloudy.10 mph100%30.33 "Hg4 mi
4:00 PM72 °FThunderstorms. Cloudy.7 mph47%30.24 "HgN/A
3:00 PM72 °FScattered clouds.18 mph47%30.24 "HgN/A
2:00 PM72 °FScattered clouds.14 mph47%30.30 "HgN/A
1:00 PM68 °FScattered clouds.12 mph53%30.33 "HgN/A
12:00 PM66 °FScattered clouds.10 mph64%N/AN/A
11:00 AM61 °FScattered clouds.3 mph68%30.42 "HgN/A
10:00 AM59 °FPartly sunny.3 mph82%30.45 "HgN/A
9:00 AM55 °FPartly sunny.3 mph88%30.45 "HgN/A
8:00 AM52 °FPartly sunny.1 mph94%30.42 "HgN/A
7:00 AM50 °FPartly sunny.2 mph100%30.39 "HgN/A
6:00 AM50 °FOvercast.3 mph100%30.39 "HgN/A
5:00 AM48 °FPassing clouds.6 mph100%30.36 "HgN/A
4:00 AM48 °FPassing clouds.3 mph100%30.36 "HgN/A
3:00 AM50 °FPassing clouds.3 mph100%30.36 "HgN/A
2:00 AM50 °FPassing clouds.No wind100%30.39 "HgN/A
1:00 AM50 °FPassing clouds.2 mph100%30.39 "HgN/A
12:00 AM52 °FCool.1 mph100%30.39 "HgN/A
11:00 PM
Apr 16
50 °FPassing clouds.3 mph100%30.39 "HgN/A
10:00 PM50 °FPassing clouds.1 mph100%30.39 "HgN/A
9:00 PM52 °FPassing clouds.6 mph100%30.36 "HgN/A
8:00 PM54 °FPassing clouds.3 mph100%30.36 "HgN/A
Weather by CustomWeather, © 2014

See weather overview